STARLINK-11668 [DTC] (63557 NORAD) Tracking and Keplerian Element Data

This shows tracking and keplerian element data for the satellite.

Feedback or suggestion? Click here.




ElementValue
Catalog63557
NameSTARLINK-11668 [DTC]
Epoch Orbit4074
Epoch Day354.20144203
Epoch Year2025
RAAN273.2457
Inclination43.0022
Eccentricity0.0002467
Argument of Perigee273.2104
Mean Anonmoly86.8482
Mean Motion15.70897295
Decay Rate0.00163641
L11 63557U 25075K 25354.20144203 .00163641 00000+0 12508-2 0 9998
L22 63557 43.0022 273.2457 0002467 273.2104 86.8482 15.70897295 40741



Live tracking and technical data element details for STARLINK-11668 [DTC] (NORAD 63557). STARLINK-11668 [DTC] can be tracked NOW for your location showing map with azimuth and elevation plus other details from your city location.







IsCatalogInMostPopularTable: catalog: 63557, numindb: 3
Update: records affected: 1



GetName: 63557 STARLINK-11668 [DTC]

Hit Count: updated at: Tue, 17 Feb 2026 12:53:38 GMT